Time,TemperatureF,DewpointF,PressureIn,WindDirection,WindDirectionDegrees,WindSpeedMPH,WindSpeedGustMPH,Humidity,HourlyPrecipIn,Conditions,Clouds,dailyrainin,SolarRadiationWatts/m^2,SoftwareType,DateUTC
2013-02-19 00:11:00,35.0,30.0,-100.00,West,279,3.0,4.0,79,-99.99,,,0.00,0.000000,,2013-02-19 08:11:00,
2013-02-19 01:11:00,36.0,29.0,-100.00,WNW,291,2.0,4.0,76,-99.99,,,0.00,0.000000,,2013-02-19 09:11:00,
2013-02-19 02:11:00,34.0,29.0,-100.00,North,8,2.0,4.0,83,-99.99,,,0.00,0.120000,,2013-02-19 10:11:00,
2013-02-19 03:11:00,34.0,30.0,-100.00,West,260,2.0,8.0,86,-99.99,,,0.00,0.120000,,2013-02-19 11:11:00,
2013-02-19 04:12:00,33.0,30.0,-100.00,West,271,1.0,5.0,88,-99.99,,,0.00,0.120000,,2013-02-19 12:12:00,
2013-02-19 05:11:00,32.0,30.0,-100.00,WNW,286,4.0,7.0,89,-99.99,,,0.00,0.120000,,2013-02-19 13:11:00,
2013-02-19 06:11:00,33.0,30.0,-100.00,WNW,286,5.0,9.0,89,-99.99,,,0.00,0.120000,,2013-02-19 14:11:00,
2013-02-19 07:11:00,33.0,30.0,-100.00,WNW,289,3.0,13.0,89,-99.99,,,0.00,0.120000,,2013-02-19 15:11:00,
2013-02-19 08:11:00,32.0,30.0,-100.00,WNW,288,6.0,9.0,92,-99.99,,,0.00,8.600000,,2013-02-19 16:11:00,
2013-02-19 10:11:00,34.0,31.0,-100.00,West,267,6.0,10.0,88,-99.99,,,0.00,148.300003,,2013-02-19 18:11:00,
2013-02-19 12:11:00,39.0,31.0,-100.00,West,269,5.0,7.0,73,-99.99,,,0.00,449.890015,,2013-02-19 20:11:00,
2013-02-19 13:11:00,41.0,31.0,-100.00,West,277,5.0,8.0,67,-99.99,,,0.00,638.979980,,2013-02-19 21:11:00,
2013-02-19 14:11:00,41.0,31.0,-100.00,WSW,253,7.0,12.0,68,-99.99,,,0.00,351.799988,,2013-02-19 22:11:00,
2013-02-19 15:11:00,40.0,31.0,-100.00,West,259,7.0,12.0,69,-99.99,,,0.00,291.130005,,2013-02-19 23:11:00,
2013-02-19 16:11:00,40.0,31.0,-100.00,West,263,5.0,9.0,68,-99.99,,,0.00,126.449997,,2013-02-20 00:11:00,
2013-02-19 17:11:00,39.0,31.0,-100.00,West,271,5.0,8.0,70,-99.99,,,0.00,46.490002,,2013-02-20 01:11:00,
2013-02-19 18:11:00,39.0,31.0,-100.00,West,279,3.0,5.0,72,-99.99,,,0.00,8.830000,,2013-02-20 02:11:00,
2013-02-19 19:12:00,39.0,31.0,-100.00,WNW,283,4.0,8.0,73,-99.99,,,0.00,0.000000,,2013-02-20 03:12:00,
2013-02-19 20:11:00,36.0,33.0,-100.00,WNW,286,6.0,9.0,88,-99.99,,,0.00,0.000000,,2013-02-20 04:11:00,
2013-02-19 21:12:00,36.0,33.0,-100.00,NW,316,3.0,5.0,89,-99.99,,,0.00,0.000000,,2013-02-20 05:12:00,
2013-02-19 22:11:00,35.0,32.0,-100.00,NW,307,3.0,5.0,89,-99.99,,,0.00,0.000000,,2013-02-20 06:11:00,
2013-02-19 23:11:00,36.0,32.0,-100.00,West,279,4.0,7.0,85,-99.99,,,0.00,0.000000,,2013-02-20 07:11:00,